Regional Weather Roundup
Issued by NWS

Home | Current Version | Previous Version | Text Only | Print | Product List | Glossary On
Versions: 1 2 3 4 5 6 7 8 9 10 11 12 13 14 15 16 17 18 19 20 21 22 23 24 25 26 27 28 29 30 31 32 33 34 35 36 37 38 39 40 41 42 43 44 45 46 47 48 49 50
959
ASUS43 KTOP 270659
RWRKS

WEATHER ROUNDUP FOR KANSAS
NATIONAL WEATHER SERVICE GOODLAND KS
100 AM CST MON FEB 27 2017

NOTE:  "FAIR" INDICATES FEW OR NO CLOUDS BELOW 12,000 FEET WITH NO
SIGNIFICANT WEATHER AND/OR OBSTRUCTIONS TO VISIBILITY.

KSZ001>006-013>018-027>032-041>047-270800-
NORTHWEST KANSAS

CITY           SKY/WX    TMP DP  RH WIND       PRES   REMARKS
GOODLAND       CLEAR     22   8  55 S15       29.84R WCI   9
HAYS           PTCLDY    25   9  50 CALM      29.93F
HILL CITY      CLEAR     17   8  67 E3        29.92S
RUSSELL        PTCLDY    27  13  55 SE10      29.92F WCI  17
$$

KSZ061>065-074>080-084>089-270800-
SOUTHWEST KANSAS

CITY           SKY/WX    TMP DP  RH WIND       PRES   REMARKS
DODGE CITY     CLEAR     24  17  74 SE7       29.90S
ELKHART          N/A     30  11  45 SE16        N/A  WCI  19
GARDEN CITY    CLEAR     29  18  63 SE10      29.88S WCI  20
GREAT BEND     CLEAR     29  20  69 SE6       29.94F
LIBERAL        CLEAR     34  18  51 SE10      29.87R WCI  26
$$

KSZ066>073-081>083-090>101-270800-
SOUTHEAST KANSAS

CITY           SKY/WX    TMP DP  RH WIND       PRES   REMARKS
CHANUTE        PTCLDY    30  28  92 SE5       30.01R FOG
COFFEYVILLE    CLEAR     32  30  92 NE3       30.01R
HUTCHINSON     PTCLDY    34  24  67 SE6       29.96S
MEDICINE LODGE   N/A     38  25  59 E9        29.92F
NEWTON         CLEAR     31  24  75 E9        29.97S
PARSONS        CLEAR     34  31  88 E3        30.01S
WICHITA INTL   CLEAR     36  27  69 E7        29.97R
WICHITA JABRA  CLEAR     32  26  78 E3        29.98R
WINFIELD       CLEAR     37  30  75 E7        29.97F
$$

KSZ007>012-019>026-033>040-048>060-102>105-270800-
NORTHEAST KANSAS

CITY           SKY/WX    TMP DP  RH WIND       PRES   REMARKS
CONCORDIA      CLEAR     24  13  62 E3        29.97S
EMPORIA        PTCLDY    30  28  92 S6        30.00S
LAWRENCE       PTCLDY    29  29 100 CALM      30.03S FOG
MANHATTAN      CLEAR     26  21  81 CALM      30.01R
OLATHE IND     FOG       29  28  96 SE5       30.02S VSB 3/4
OLATHE EXE     CLEAR     31  31 100 S5        30.02S FOG
SALINA         CLEAR     29  17  61 CALM      29.97F
TOPEKA BILLARD CLEAR     31  31 100 CALM      30.02S
TOPEKA FORBES  CLEAR     29  25  85 S3        30.01S
$$




USA.gov is the U.S. government's official web portal to all federal, state and local government web resources and services.